{"data":{"norad_id":51105,"intl_designator":"2022-005B","name":"STARLINK-3350","alt_names":[],"object_type":"PAYLOAD","status":"ACTIVE","operator":null,"country":"US","launch_date":"2022-01-19","launch_site_code":"AFETR","launch_vehicle":null,"mission":null,"orbit_class":"UNKNOWN","rcs_meters":null,"size_class":null,"mass_kg":null,"dimensions":null,"purposes":["comms"],"wikipedia_slug":null,"has_3d_model":false,"image_url":null,"decayed_at":null,"tle_current":{"epoch":"2026-05-25T03:42:56.201760Z","epoch_age_seconds":62490,"freshness":"FRESH","line1":"1 51105U 22005B   26145.15481715  .00002494  00000+0  17470-3 0  9991","line2":"2 51105  53.2139 305.8561 0001244 110.8929 249.2197 15.08849719240424","mean_motion":15.08849719,"eccentricity":0.0001244,"inclination_deg":53.2139,"raan_deg":305.8561,"arg_perigee_deg":110.8929,"mean_anomaly_deg":249.2197,"bstar":0.0001747,"rev_number":24042,"period_min":95.436939932916,"perigee_km":538.85310140387,"apogee_km":540.57426265355,"semimajor_km":6917.8506820287,"source":"CELESTRAK","updated_at":"2026-05-25T13:38:16.884443Z"}}}